Date,TemperatureHighF,TemperatureAvgF,TemperatureLowF,DewpointHighF,DewpointAvgF,DewpointLowF,HumidityHigh,HumidityAvg,HumidityLow,PressureMaxIn,PressureMinIn,WindSpeedMaxMPH,WindSpeedAvgMPH,GustSpeedMaxMPH,PrecipitationSumIn
2013-1-1,39,34,30,36,32,28,92,91,89,30.45,30.32,2,0,3,0.02
2013-1-2,46,36,31,34,30,26,91,80,61,30.32,30.15,7,1,7,0.02
2013-1-3,46,36,30,33,28,25,89,73,57,30.15,30.04,8,1,8,0.08
2013-1-4,47,42,36,44,39,33,92,91,88,30.25,30.11,8,2,10,0.08
2013-1-5,43,42,41,40,38,36,91,84,80,30.15,30.05,3,1,7,0.08
2013-1-6,46,42,40,41,39,38,92,89,83,30.12,29.93,12,3,13,0.16
2013-1-7,50,45,40,49,43,38,96,94,92,30.10,29.76,6,1,8,0.44
2013-1-8,50,46,42,49,44,40,96,93,91,30.11,29.65,9,2,12,0.20
2013-1-9,50,41,35,48,39,33,93,92,91,29.91,29.61,8,1,10,0.87
2013-1-10,41,36,31,39,34,28,93,92,90,30.06,29.89,1,0,2,0.12
2013-1-11,38,31,27,34,28,24,91,90,85,30.29,30.06,3,0,5,0.02
2013-1-12,39,30,26,34,27,23,91,87,79,30.41,30.27,3,0,3,0.00
2013-1-13,36,30,25,30,26,22,89,85,75,30.45,30.39,4,0,5,0.00
2013-1-14,36,34,32,33,31,28,90,88,86,30.52,30.42,2,0,3,0.02
2013-1-15,47,36,32,41,33,29,91,87,76,30.65,30.52,3,0,5,0.02
2013-1-16,38,32,28,34,29,25,90,88,86,30.64,30.48,1,0,2,0.00
2013-1-17,38,32,28,35,30,25,91,90,89,30.49,30.24,2,0,2,0.00
2013-1-18,37,33,30,34,31,27,91,90,90,30.30,30.22,1,0,2,0.00
2013-1-19,37,35,32,34,32,29,91,90,89,30.34,30.29,1,0,2,0.00
2013-1-20,38,35,33,35,33,31,91,91,89,30.37,30.22,1,0,2,0.00
2013-1-21,35,33,31,33,31,29,92,91,90,30.24,30.09,2,0,3,0.00
2013-1-22,38,33,28,35,30,25,92,90,87,30.12,29.86,2,0,2,0.00
2013-1-23,42,39,35,40,36,33,93,89,78,30.07,29.79,5,1,7,0.28
2013-1-24,45,42,40,41,39,38,93,90,82,30.16,29.99,6,1,9,0.26
2013-1-25,50,45,40,46,42,38,94,90,83,30.00,29.87,7,1,9,0.06
2013-1-26,44,41,39,42,39,37,93,92,91,29.97,29.82,6,1,7,0.32
2013-1-27,43,41,39,41,39,37,93,92,91,30.00,29.92,2,0,3,0.30
2013-1-28,42,41,40,40,39,38,93,93,92,30.03,29.94,2,0,3,0.77
2013-1-29,45,43,41,43,41,39,94,94,93,30.28,30.03,3,0,3,0.57
2013-1-30,49,46,43,47,44,42,95,94,92,30.33,30.27,2,0,3,0.48
2013-1-31,49,47,46,47,45,44,94,92,90,30.32,30.24,5,1,6,0.14